This is the latest recevied weather packets stored in our database for station/object HK6LRQ-25. If no packets are shown the sender has not sent any weather packets the latest 10 day(s).
| Time | Temp. | Humidity | Pressure | Rain* | Wind** | Luminosity | Snow |
|---|---|---|---|---|---|---|---|
| 1777761140 | 15° C | 92% | 1013 hPa | 0.76 mm | - | - | - |
| 1777759339 | 15.56° C | 90% | 1012 hPa | 0 mm | - | - | - |
| 1777757538 | 15.56° C | 91% | 1012 hPa | 0 mm | - | - | - |
| 1777755737 | 15.56° C | 90% | 1011 hPa | 0 mm | - | - | - |
| 1777753936 | 16.11° C | 89% | 1011 hPa | 0 mm | - | - | - |
| 1777752135 | 16.11° C | 90% | 1012 hPa | 0 mm | - | - | - |
| 1777750334 | 16.67° C | 88% | 1012 hPa | 0 mm | - | - | - |
| 1777748533 | 16.67° C | 89% | 1012 hPa | 0 mm | - | - | - |
| 1777746732 | 16.67° C | 87% | 1012 hPa | 0 mm | - | - | - |
| 1777744930 | 16.67° C | 86% | 1013 hPa | 0 mm | - | - | - |
| 1777743129 | 17.22° C | 86% | 1013 hPa | 0 mm | - | - | - |
| 1777741328 | 17.22° C | 88% | 1015 hPa | 0 mm | - | - | - |
| 1777739527 | 17.22° C | 86% | 1014 hPa | 0 mm | - | - | - |
| 1777737725 | 17.22° C | 87% | 1015 hPa | 0 mm | - | - | - |
| 1777735924 | 17.22° C | 84% | 1015 hPa | 0 mm | - | - | - |
| 1777734123 | 16.67° C | 87% | 1015 hPa | 0 mm | - | - | - |
| 1777732322 | 17.22° C | 85% | 1015 hPa | 0 mm | - | - | - |
| 1777730521 | 17.22° C | 86% | 1015 hPa | 0 mm | - | - | - |
| 1777728720 | 17.22° C | 84% | 1014 hPa | 0 mm | - | - | - |
| 1777726919 | 17.22° C | 87% | 1015 hPa | 0 mm | - | - | - |
| 1777725118 | 17.22° C | 85% | 1015 hPa | 0 mm | - | - | - |
| 1777723317 | 17.78° C | 87% | 1015 hPa | 0 mm | - | - | - |
| 1777721516 | 11.67° C | 87% | 1015 hPa | 0 mm | - | - | - |
| 1777719715 | 12.22° C | 88% | 1014 hPa | 0 mm | - | - | - |
| 1777717914 | 12.78° C | 88% | 1014 hPa | 0 mm | - | - | - |
* Rain latest hour (hover to see other rain measurements)
** Current wind speed in m/s (hover to see current wind gust speed)